This is the latest recevied weather packets stored in our database for station/object N5XJB. If no packets are shown the sender has not sent any weather packets the latest 10 day(s).
| Time | Temp. | Humidity | Pressure | Rain* | Wind** | Luminosity | Snow |
|---|---|---|---|---|---|---|---|
| 1777659074 | 16.67° C | 99% | 1008.7 hPa | 1.02 mm | - | 26 W/m² | - |
| 1777658773 | 16.67° C | 99% | 1009.7 hPa | 0.25 mm | - | 21 W/m² | - |
| 1777658469 | 16.67° C | 99% | 1010 hPa | 0 mm | - | 16 W/m² | - |
| 1777658166 | 16.67° C | 99% | 1010.7 hPa | 1.52 mm | - | 15 W/m² | - |
| 1777657862 | 16.67° C | 99% | 1010.7 hPa | 1.02 mm | - | 32 W/m² | - |
| 1777657559 | 17.22° C | 99% | 1011.4 hPa | 1.02 mm | - | 40 W/m² | - |
| 1777657257 | 17.22° C | 99% | 1011.4 hPa | 0.76 mm | - | 38 W/m² | - |
| 1777656954 | 17.22° C | 99% | 1011.4 hPa | 0.76 mm | - | 45 W/m² | - |
| 1777656650 | 17.22° C | 99% | 1011.4 hPa | 0.25 mm | - | 46 W/m² | - |
| 1777656346 | 17.22° C | 99% | 1011.4 hPa | 0.25 mm | - | 56 W/m² | - |
| 1777656041 | 16.67° C | 99% | 1011.4 hPa | 0.25 mm | - | 79 W/m² | - |
| 1777655738 | 17.22° C | 99% | 1011.4 hPa | 0.25 mm | - | 72 W/m² | - |
| 1777655435 | 17.22° C | 99% | 1011.7 hPa | 0.25 mm | - | 96 W/m² | - |
| 1777655131 | 17.22° C | 99% | 1011.7 hPa | 0 mm | - | 149 W/m² | - |
| 1777654829 | 16.67° C | 99% | 1012.1 hPa | 0 mm | - | 168 W/m² | - |
| 1777654527 | 16.67° C | 99% | 1012.1 hPa | 3.05 mm | - | 126 W/m² | - |
| 1777654224 | 16.67° C | 99% | 1012.4 hPa | 3.05 mm | - | 119 W/m² | - |
| 1777653922 | 16.67° C | 99% | 1012.4 hPa | 2.79 mm | - | 73 W/m² | - |
| 1777653618 | 16.67° C | 99% | 1012.7 hPa | 2.79 mm | - | 51 W/m² | - |
| 1777653314 | 16.67° C | 99% | 1012.7 hPa | 2.29 mm | - | 41 W/m² | - |
| 1777653011 | 16.67° C | 99% | 1013.7 hPa | 1.78 mm | - | 44 W/m² | - |
| 1777652708 | 16.67° C | 99% | 1013.1 hPa | 1.52 mm | - | 54 W/m² | - |
| 1777652404 | 17.22° C | 99% | 1013.7 hPa | 1.02 mm | - | 26 W/m² | - |
| 1777652102 | 17.22° C | 99% | 1013.7 hPa | 0.76 mm | - | 15 W/m² | - |
| 1777651798 | 17.22° C | 99% | 1013.7 hPa | 0.25 mm | - | 9 W/m² | - |
* Rain latest hour (hover to see other rain measurements)
** Current wind speed in m/s (hover to see current wind gust speed)